Flag for Germany Weather past 2 weeks in Emmendingen, Baden-Württemberg, Germany

Now
41 °F

Partly sunny.


Feels Like: 38 °F
Forecast: 33 / 41 °F
Wind: 5 mph from West

Location: Lahr - CAN-AFB

Current Time: Jan 27, 2015 at 1:41:00 PM

Latest Report: Jan 27, 2015 at 12:50 PM


Visibility: N/A

Pressure: 30.27 "Hg

Humidity: 76%

Dew point: 34 °F

Location of EmmendingenLocation

Historic Weather in Emmendingen — Graph

°F

Emmendingen temperature yesterday

Maximum temperature yesterday: 36 °F (at 11:50 AM)
Minimum temperature yesterday: 34 °F (at 7:50 AM)
Average temperature yesterday: 34 °F

Past Weeks' High & Low Weather Summary

 TemperatureHumidityPressure
High59 °F (Jan 13, 1:20 PM)100% (Jan 16, 1:50 PM)30.42 "Hg (Jan 16, 1:50 PM)
Low32 °F (Jan 19, 7:50 AM)27% (Jan 13, 12:20 PM)29.71 "Hg (Jan 15, 4:50 PM)
Average40 °F79%29.99 "Hg
* Reported Jan 12 12:20 PM — Jan 27 12:20 PM, Emmendingen, Weather by CustomWeather, © 2014

Note: Actual official high and low records may vary slightly from our data, if they occured in-between our weather recording intervals... More about our weather records

Advertising

Emmendingen weather history for previous 24 hours

 ConditionsComfort  
Time TempWeatherWind HumidityBarometerVisibility
12:20 PM
Jan 27
41 °FScattered clouds.6 mph76%30.27 "HgN/A
11:50 AM41 °FBroken clouds.7 mph81%30.27 "HgN/A
11:20 AM39 °FBroken clouds.6 mph87%30.27 "HgN/A
10:50 AM37 °FPartly sunny.5 mph93%30.27 "HgN/A
10:20 AM37 °FPartly sunny.6 mph93%30.27 "HgN/A
9:50 AM36 °FPartly sunny.6 mph100%30.27 "HgN/A
9:20 AM36 °FPartly sunny.7 mph93%30.24 "HgN/A
8:50 AM36 °FPartly sunny.3 mph93%30.24 "HgN/A
8:20 AM36 °FBroken clouds.1 mph93%30.24 "HgN/A
7:50 AM34 °FPassing clouds.2 mph100%30.24 "HgN/A
7:50 PM
Jan 26
34 °FLight rain. Partly cloudy.13 mph93%30.15 "Hg2 mi
7:20 PM34 °FLight rain. Fog.13 mph93%30.15 "Hg2 mi
6:50 PM34 °FLight rain. Partly cloudy.14 mph93%30.18 "Hg2 mi
6:20 PM34 °FLight rain. Passing clouds.12 mph93%30.18 "Hg2 mi
5:50 PM34 °FLight rain. Fog.12 mph93%30.18 "Hg1 mi
5:20 PM34 °FSnow. Passing clouds.14 mph93%30.18 "Hg2 mi
4:50 PM34 °FSnow. Partly sunny.13 mph93%30.18 "Hg2 mi
4:20 PM34 °FSnow. Partly sunny.13 mph93%30.21 "Hg2 mi
3:50 PM34 °FLight snow. Fog.14 mph93%30.21 "Hg3 mi
3:20 PM34 °FLight snow. Fog.14 mph93%30.21 "Hg2 mi
2:50 PM36 °FLight rain. Partly sunny.16 mph87%30.21 "Hg4 mi
2:20 PM36 °FLight rain. Partly sunny.14 mph87%30.24 "Hg5 mi
1:50 PM36 °FLight rain. Partly sunny.14 mph87%30.24 "Hg5 mi
1:20 PM36 °FLight rain. Partly sunny.14 mph87%30.27 "HgN/A
Weather by CustomWeather, © 2014

See weather overviewHow to use our weather pages